Regional Weather Roundup
Issued by NWS

Home | Current Version | Previous Version | Graphics & Text | Print | Product List | Glossary Off
Versions: 1 2 3 4 5 6 7 8 9 10 11 12 13 14 15 16 17 18 19 20 21 22 23 24 25 26 27 28 29 30 31 32 33 34 35 36 37 38 39 40 41 42 43 44 45 46 47 48 49 50

000
ASUS43 KTOP 301708
RWRKS

WEATHER ROUNDUP FOR KANSAS
NATIONAL WEATHER SERVICE GOODLAND KS
1100 AM CST FRI JAN 30 2015

NOTE:  "FAIR" INDICATES FEW OR NO CLOUDS BELOW 12,000 FEET WITH NO
SIGNIFICANT WEATHER AND/OR OBSTRUCTIONS TO VISIBILITY.

KSZ001>006-013>018-027>032-041>047-301800-
NORTHWEST KANSAS

CITY           SKY/WX    TMP DP  RH WIND       PRES   REMARKS
GOODLAND       CLOUDY    41  27  57 S21G28    30.27F
HAYS           CLOUDY    37  23  56 S12       30.44S WCI  30
HILL CITY      CLOUDY    41  25  53 S14G20    30.40F
RUSSELL        CLOUDY    38  29  70 S13       30.43F WCI  30
$$

KSZ061>065-074>080-084>089-301800-
SOUTHWEST KANSAS

CITY           SKY/WX    TMP DP  RH WIND       PRES   REMARKS
DODGE CITY     CLOUDY    40  24  53 S20G26    30.43S WCI  30
ELKHART          N/A     40  24  53 S12         N/A  WCI  33
GARDEN CITY    CLOUDY    42  26  53 S21       30.37F
LIBERAL        CLOUDY    41  27  56 S15       30.41F
PRATT          PTSUNNY   39  27  60 S14       30.48S WCI  31
$$

KSZ066>073-081>083-090>101-301800-
SOUTHEAST KANSAS

CITY           SKY/WX    TMP DP  RH WIND       PRES   REMARKS
CHANUTE        MOSUNNY   34  26  72 CALM      30.57R
COFFEYVILLE    MOSUNNY   36  26  67 VRB3      30.57F
HUTCHINSON     CLOUDY    39  28  64 S9        30.51F
MEDICINE LODGE   N/A     38  27  64 S13       30.50F WCI  30
NEWTON         CLOUDY    36  25  64 S8        30.53F
PARSONS        MOSUNNY   36  26  67 VRB6      30.57S
WICHITA INTL   CLOUDY    37  26  64 S8        30.53F
WICHITA JABRA  CLOUDY    36  26  67 S7        30.53S
WICHITA MCCONL CLOUDY    37  26  65 S6        30.53F
WINFIELD       PTSUNNY   37  25  61 SE7       30.55F
$$

KSZ007>012-019>026-033>040-048>060-102>105-301800-
NORTHEAST KANSAS

CITY           SKY/WX    TMP DP  RH WIND       PRES   REMARKS
CONCORDIA      CLOUDY    34  27  75 S13       30.49F WCI  25
EMPORIA        PTSUNNY   32  27  81 S3        30.54F
LAWRENCE       SUNNY     31  22  69 CALM      30.57S
MANHATTAN      PTSUNNY   30  27  88 CALM      30.55S
MARYSVILLE     PTSUNNY   32  27  80 S8        30.53R
OLATHE IND     SUNNY     31  22  69 CALM      30.56S
OLATHE EXE     SUNNY     32  20  61 CALM      30.55R
SALINA         CLOUDY    37  28  70 S9        30.52F
TOPEKA BILLARD MOSUNNY   31  22  69 CALM      30.57S
TOPEKA FORBES  MOSUNNY   32  22  66 SE3       30.55S
$$


USA.gov is the U.S. government's official web portal to all federal, state and local government web resources and services.